CW0630 Weather Reports


time (UTC)temp
C
wind
direction
speed
KPH
gust
KPH
rain 1hr
cm
rain 24hr
cm
rain mn
cm
humidity
%
barometer
mb
20260509060846 12 177 4.8 6.4 0.00 0.03 0.00 69 1013.6
20260509050851 13 172 6.4 6.4 0.00 0.03 0.00 65 1013.3
20260509040846 13 182 1.6 3.2 0.00 0.03 0.00 60 1013.2
20260509030843 15 186 3.2 4.8 0.00 0.03 0.03 54 1013.6
20260509020859 15 188 3.2 8.0 0.00 0.03 0.03 49 1013.7
20260509010921 16 182 1.6 6.4 0.00 0.03 0.03 47 1013.1
20260509000921 17 178 4.8 6.4 0.00 0.03 0.03 43 1013.0
20260508230858 19 176 9.7 9.7 0.00 0.03 0.03 39 1012.4
20260508220846 20 186 4.8 6.4 0.00 0.03 0.03 35 1012.6
20260508210853 21 178 9.7 20.9 0.00 0.03 0.03 32 1012.5
20260508200842 22 206 4.8 6.4 0.00 0.15 0.03 37 1013.1
20260508190848 21 321 3.2 6.4 0.00 0.15 0.03 37 1014.0
20260508180845 20 194 11.3 16.1 0.00 0.15 0.03 35 1014.6
20260508170904 20 207 3.2 8.0 0.00 0.15 0.03 39 1015.3
20260508160904 19 249 6.4 6.4 0.03 0.15 0.03 44 1016.2
20260508150855 18 276 4.8 4.8 0.00 0.18 0.00 42 1016.7
20260508140850 17 317 6.4 6.4 0.00 0.18 0.00 49 1016.7
20260508130853 14 19 0.0 0.0 0.00 0.18 0.00 70 1016.8
20260508120858 9 273 0.0 0.0 0.00 0.18 0.00 96 1016.1
20260508110904 6 254 0.0 0.0 0.00 0.18 0.00 96 1015.1
20260508100900 5 245 0.0 0.0 0.00 0.18 0.00 95 1014.5
20260508090906 5 245 1.6 1.6 0.00 0.20 0.00 95 1013.9
20260508080852 6 244 0.0 0.0 0.00 0.20 0.00 95 1013.3
20260508070856 6 244 0.0 0.0 0.00 0.20 0.00 95 1012.9